Location: Alexo
(52.4665°N, 115.7844°W)
Time: 08:57:29
(UTC+00:00)

ISS - Visible Passes

Search period start: 04 December 2021 00:00
Search period end: 14 December 2021 00:00
Orbit: 417 x 423 km, 51.6° (Epoch: 04 December)

Date Brightness Start Highest point End Pass type
(mag) Time Alt. Az. Time Alt. Az. Time Alt. Az.
04 Dec -2.7 01:30:11 10° W 01:33:25 42° SSW 01:35:03 24° SE visible
05 Dec -3.0 00:42:46 10° W 00:46:05 53° SSW 00:49:24 10° ESE visible
05 Dec -1.2 02:20:04 10° W 02:22:24 17° SW 02:22:58 17° SSW visible
06 Dec -1.5 01:32:21 10° W 01:35:09 24° SSW 01:37:55 10° SSE visible
07 Dec -1.9 00:44:44 10° W 00:47:48 32° SSW 00:50:52 10° SE visible
08 Dec -0.6 01:35:08 10° WSW 01:36:33 12° SW 01:37:57 10° SSW visible
09 Dec -0.7 00:46:54 10° W 00:49:13 17° SW 00:51:32 10° S visible
